Simultaneous Nadir Overpasses (SNOs) Predictions

Prediction of SNOs between GOES-17 and METOP-C Satellite Orbit:

Table of predicted SNOs for the next 14.0 days since TLE Epoch: 8/22/2020
Index Date Time (GOES-17) GOES-17 Lat,Lon METOP-C Lat,Lon Distance(km) Time Diff (sec)
1 08/22/2020 18:47:50 -0.02,-137.18 0.47,-139.37 249.06 80
2 08/23/2020 18:29:51 -0.02,-137.17 -0.67,-134.37 319.62 80
3 08/25/2020 06:46:10 0.02,-137.16 -0.40,-138.96 206.05 80
4 08/26/2020 06:28:11 0.02,-137.14 0.74,-133.97 362.10 80
5 08/27/2020 18:44:21 -0.02,-137.13 0.28,-138.53 158.93 80
6 08/28/2020 18:26:21 -0.02,-137.12 -0.80,-133.52 408.93 80
7 08/30/2020 06:45:21 0.00,-137.09 -0.21,-138.12 117.61 80
8 08/31/2020 06:22:00 0.00,-137.07 0.87,-133.12 449.96 80
9 09/01/2020 18:40:51 -0.00,-137.05 0.15,-137.68 71.48 80
10 09/02/2020 18:22:51 -0.00,-137.03 -0.99,-132.69 495.98 80
11 09/04/2020 06:39:11 0.00,-137.00 -0.08,-137.27 31.38 80
